Weather History for Akron, OH

Change the Weather History Date:

Tuesday, September 10, 2013

  Actual Average (KCAK) Record (KCAK)
Temperature  
Mean Temperature 82 °F 65 °F  
Max Temperature 93 °F 75 °F 93 °F (1964)
Min Temperature 72 °F 56 °F 39 °F (1914)
Degree Days  
Heating Degree Days 0 2  
Month to date heating degree days 15  
Since 1 July heating degree days 35  
Cooling Degree Days 16 3  
Month to date cooling degree days 35  
Year to date cooling degree days 617  
Growing Degree Days 32 (Base 50)    
Moisture  
Dew Point 71 °F    
Average Humidity 71    
Maximum Humidity 84    
Minimum Humidity 48    
Precipitation  
Precipitation 0.00 in 0.12 in 0.69 in (1997)
Month to date precipitation 1.18  
Year to date precipitation 28.38  
Snow  
Snow 0.00 in 0.00 in - ()
Month to date snowfall 0.0  
Since 1 July snowfall 0.0  
Since 1 September snowfall 0.0  
Snow Depth -    
Sea Level Pressure  
Sea Level Pressure 30.05 in    
Wind  
Wind Speed 10 mph (SW)    
Max Wind Speed 14 mph    
Max Gust Speed 20 mph    
Visibility 7 miles    
Events      
T = Trace of Precipitation, MM = Missing Value Source: NWS Daily Summary

Daily Weather History Graph

Daily Weather History Graph

Search for Another Location

Airport:

Trip Planner

Search our weather history database for the weather conditions in past years. The results will help you decide how hot, cold, wet, or windy it might be!

Date:

Astronomy

Sep. 10, 2013 Rise Set
Actual Time 7:01 AM EDT 7:43 PM EDT
Civil Twilight 6:33 AM EDT 8:10 PM EDT
Nautical Twilight 6:00 AM EDT 8:43 PM EDT
Astronomical Twilight 5:26 AM EDT 9:17 PM EDT
Moon 12:28 PM EDT (9/10) 10:42 PM EDT (9/10)
Length of Visible Light 13h 36m
Length of Day
12h 41m
Waxing Crescent, 28% of the Moon is Illuminated
Sep 10
Waxing Crescent
Sep 12
First Quarter
Sep 19
Full
Sep 26
Last Quarter
Oct 4
New

Hourly Weather History & Observations

Time (EDT) Temp. Heat Index Dew Point Humidity Pressure Visibility Wind Dir Wind Speed Gust Speed Precip Events Conditions
12:54 AM 73.0 °F - 68.0 °F 84% 30.01 in 7.0 mi SSW 10.4 mph - N/A   Clear
1:54 AM 73.0 °F - 68.0 °F 84% 30.02 in 7.0 mi SSW 6.9 mph - N/A   Partly Cloudy
2:54 AM 72.0 °F - 66.9 °F 84% 30.01 in 7.0 mi SSW 8.1 mph - N/A   Clear
3:54 AM 72.0 °F - 66.9 °F 84% 30.01 in 7.0 mi SSW 6.9 mph - N/A   Scattered Clouds
4:54 AM 73.0 °F - 68.0 °F 84% 30.03 in 8.0 mi SSW 6.9 mph - N/A   Mostly Cloudy
5:54 AM 75.0 °F - 68.0 °F 79% 30.04 in 8.0 mi SW 10.4 mph - N/A   Mostly Cloudy
6:54 AM 73.9 °F - 68.0 °F 82% 30.05 in 8.0 mi SW 9.2 mph - N/A   Clear
7:54 AM 73.9 °F - 68.0 °F 82% 30.06 in 6.0 mi SW 9.2 mph - N/A   Haze
8:54 AM 77.0 °F - 69.1 °F 76% 30.06 in 6.0 mi SW 10.4 mph - N/A   Haze
9:54 AM 80.1 °F 83.2 °F 70.0 °F 71% 30.07 in 6.0 mi SW 13.8 mph - N/A   Haze
10:54 AM 82.0 °F 86.3 °F 71.1 °F 69% 30.07 in 7.0 mi SSW 10.4 mph - N/A   Clear
11:54 AM 86.0 °F 93.0 °F 73.0 °F 65% 30.06 in 7.0 mi SSW 12.7 mph - N/A   Clear
12:54 PM 88.0 °F 95.6 °F 73.0 °F 61% 30.06 in 8.0 mi SSW 13.8 mph - N/A   Clear
1:54 PM 90.0 °F 96.9 °F 72.0 °F 55% 30.06 in 8.0 mi SW 9.2 mph 18.4 mph N/A   Clear
2:54 PM 91.9 °F 99.5 °F 72.0 °F 52% 30.05 in 9.0 mi SW 12.7 mph - N/A   Clear
3:54 PM 91.9 °F 98.4 °F 71.1 °F 50% 30.04 in 9.0 mi SSW 12.7 mph 19.6 mph N/A   Clear
4:54 PM 91.9 °F 97.4 °F 70.0 °F 48% 30.04 in 9.0 mi SW 11.5 mph - N/A   Clear
5:54 PM 90.0 °F 97.9 °F 73.0 °F 57% 30.03 in 8.0 mi SSW 10.4 mph - N/A   Clear
6:54 PM 87.1 °F 94.5 °F 73.0 °F 63% 30.04 in 7.0 mi SSW 9.2 mph - N/A   Clear
7:54 PM 84.0 °F 90.2 °F 73.0 °F 69% 30.06 in 7.0 mi SW 6.9 mph - N/A   Clear
8:54 PM 82.0 °F 87.9 °F 73.9 °F 76% 30.08 in 7.0 mi SSW 9.2 mph - N/A   Clear
9:54 PM 82.0 °F 87.9 °F 73.9 °F 76% 30.09 in 7.0 mi SSW 9.2 mph - N/A   Clear
10:54 PM 81.0 °F 86.2 °F 73.9 °F 79% 30.10 in 7.0 mi SSW 9.2 mph - N/A   Clear
11:54 PM 78.1 °F - 73.0 °F 84% 30.10 in 6.0 mi SSW 6.9 mph - N/A   Haze